RH
13 14 17 19 22 22 21 19 17 17 18 17 20 23 24 25 25 28 28 25 29 34 31 29 33 33 36 44 42 38 38 33 35 38 41 43 44 45 45 43 43 43 42 40 41 43 44 44 44
14 16 17 17 21 21 18 17 17 16 17 18 20 23 23 27 28 28 28 24 27 32 31 32 40 35 36 38 39 41 38 31 30 33 35 37 40 42 42 43 43 44 44 46 48 47 47 45 44
14 15 17 18 19 18 17 16 17 17 17 16 17 19 22 28 29 29 25 24 26 29 28 32 37 36 30 34 42 39 38 34 30 29 28 29 32 36 36 36 39 42 45 46 47 46 45 44 42
12 14 15 18 18 17 15 15 15 18 16 14 15 17 19 22 27 25 23 23 26 26 26 28 30 32 29 29 37 45 33 37 31 29 30 30 31 29 30 37 37 35 37 40 42 41 40 40 35
11 13 15 17 17 16 15 16 15 15 14 13 14 16 21 21 23 21 20 23 25 25 24 24 22 27 33 30 29 35 34 34 31 30 32 32 31 28 27 27 33 35 35 35 35 34 34 32 30
12 13 14 17 16 16 16 16 15 14 13 14 15 17 21 19 22 23 20 20 20 20 18 20 20 25 33 29 27 29 44 32 33 30 28 29 28 28 27 26 26 31 33 33 32 32 32 30 28
12 13 14 16 15 16 16 16 15 15 13 14 16 19 22 22 22 20 23 24 21 18 19 19 20 26 27 25 28 31 36 26 27 26 26 26 28 27 27 26 26 28 30 30 30 30 30 30 27
10 12 14 15 15 15 16 16 15 14 14 13 16 17 21 23 21 23 23 25 24 21 22 24 25 26 25 27 28 28 27 28 26 27 27 28 25 26 26 26 26 26 28 30 31 31 31 31 29
10 12 13 14 13 14 16 17 16 15 14 16 17 17 19 21 21 23 25 26 26 23 23 22 23 25 24 28 26 27 27 25 24 24 25 25 26 25 27 26 26 26 28 31 33 32 32 31 30
11 11 11 11 11 13 16 17 16 16 16 16 18 17 18 20 22 22 22 22 23 23 20 23 21 24 22 22 24 26 25 26 26 26 24 24 23 25 27 27 27 27 29 33 34 34 33 31 30
9 9 8 9 10 13 16 17 16 15 16 15 15 17 17 20 22 23 22 23 21 23 22 20 22 24 25 23 23 23 24 23 23 24 23 22 23 24 28 30 30 29 28 31 33 33 33 33 31
10 8 8 10 12 13 15 17 16 15 15 14 15 16 17 19 20 21 22 22 24 23 21 20 21 23 24 23 22 22 22 22 23 22 21 23 27 25 28 30 29 30 29 28 27 30 29 29 27
10 10 10 11 12 13 15 16 16 15 15 14 14 16 20 21 24 26 24 23 22 22 21 20 20 22 23 22 21 21 21 22 23 23 23 26 28 28 27 26 27 27 26 26 27 26 24 23 22
10 11 13 14 14 14 15 16 17 15 15 15 15 17 19 21 24 26 26 26 23 22 21 20 19 20 22 22 21 21 22 23 24 24 27 27 28 28 28 28 26 26 25 25 24 24 23 22 22
14 14 15 15 16 17 17 17 16 17 17 18 18 19 20 22 25 26 27 28 26 24 24 23 20 19 20 21 22 23 22 23 23 24 25 26 28 29 30 29 28 28 27 25 24 24 23 22 22
17 16 18 16 17 17 17 17 18 20 20 19 19 19 21 22 22 25 28 27 25 25 24 25 23 20 21 22 23 24 24 23 24 26 27 29 28 30 30 30 29 29 27 26 25 25 24 23 23
21 20 18 21 19 19 19 19 21 22 21 21 20 21 21 21 23 24 26 26 26 25 25 25 25 23 23 24 25 25 25 25 27 30 32 33 33 33 34 33 31 29 28 26 25 25 24 24 24
24 22 22 21 22 22 22 21 23 23 23 22 23 23 24 22 22 23 24 25 25 26 26 26 27 27 26 26 27 28 28 29 31 33 35 36 37 37 36 34 32 30 28 28 27 27 26 25 25
23 23 23 24 25 23 23 23 23 24 24 23 23 24 24 24 22 21 22 23 23 24 26 26 27 29 28 28 30 32 34 34 35 35 36 38 39 39 39 37 35 34 32 31 30 29 28 27 27
25 25 27 28 27 26 26 24 24 24 23 22 22 23 27 28 26 24 23 21 21 23 24 26 27 31 32 33 35 37 38 39 39 40 41 44 45 46 46 44 42 40 37 34 34 34 32 31 30
28 26 28 27 29 27 26 24 24 24 22 22 22 21 21 21 22 24 24 24 24 25 27 28 28 31 35 38 40 43 44 45 45 45 46 48 48 48 48 46 45 43 41 40 38 37 37 36 35
30 30 28 30 28 28 26 24 19 21 24 25 25 23 23 24 22 22 21 21 21 22 25 30 32 34 38 42 45 48 50 51 49 51 52 52 51 48 48 46 44 44 43 43 41 41 40 39 38
32 32 32 33 34 30 29 28 18 21 23 25 27 27 27 28 27 26 25 24 23 22 22 24 30 34 40 45 49 51 54 55 55 55 55 54 53 51 47 46 41 42 41 42 42 41 40 39 37
34 35 37 39 38 41 24 24 16 20 18 20 25 25 27 29 29 29 29 29 27 27 26 26 28 32 38 44 49 53 55 58 60 60 60 58 56 50 48 46 41 38 37 38 37 38 38 39 39
35 33 51 52 57 34 29 26 15 15 19 20 24 25 26 27 28 29 31 31 31 31 32 32 34 36 41 45 50 54 58 60 60 61 58 56 50 45 41 38 35 35 35 35 35 35 38 42 43
31 27 41 48 42 27 32 28 15 22 20 19 21 22 24 24 25 26 28 30 31 32 33 34 35 38 42 47 50 53 58 59 60 58 48 44 43 39 34 34 34 33 34 34 35 36 38 39 40
34 34 27 28 30 29 25 21 20 24 23 22 21 23 24 25 26 27 28 29 31 34 36 38 40 43 46 49 52 54 55 53 49 44 41 38 35 34 33 31 30 29 29 30 30 31 32 34 36
30 28 31 30 41 26 23 23 14 25 23 24 23 23 25 26 27 26 28 29 31 32 34 35 37 39 41 41 41 41 39 38 36 35 34 31 29 28 27 26 25 25 24 23 22 22 23 26 31
33 29 28 26 27 32 16 15 12 15 21 22 23 24 25 27 28 28 28 29 30 31 33 33 34 35 35 35 34 34 32 30 29 29 30 30 30 28 27 26 25 24 22 21 22 24 25 27 28
29 25 21 24 30 26 23 15 18 19 20 22 24 25 27 27 28 28 28 29 29 30 30 32 32 32 33 32 32 31 31 30 29 30 30 30 30 29 27 23 21 21 23 25 26 27 27 27 27